AirNav   Pilot Hours Calculator
 
 519 users online  

1TE4 Zuehl Airport
Marion, Texas, USA

GOING TO MARION?


FAA INFORMATION EFFECTIVE 31 DECEMBER 2020

Location

FAA Identifier: 1TE4
Lat/Long: 29-29-43.8330N 098-09-28.0320W
29-29.730550N 098-09.467200W
29.4955092,-98.1577867
(estimated)
Elevation: 592 ft. / 180 m (estimated)
Variation: 07E (1985)
From city: 4 miles S of MARION, TX
Time zone: UTC -6 (UTC -5 during Daylight Saving Time)
Zip code: 78124

Airport Operations

Airport use: Private use. Permission required prior to landing
Activation date: 06/1974
Control tower: no
ARTCC: HOUSTON CENTER
FSS: SAN ANGELO FLIGHT SERVICE STATION
Attendance: CONTINUOUS
Wind indicator: yes
Segmented circle: no

Airport Communications

WX ASOS at BAZ (14 nm NE): 119.325 (830-629-7979)
WX ASOS at SAT (16 nm W): PHONE 210-805-5583
WX ASOS at SSF (19 nm SW): PHONE 210-927-9391

Nearby radio navigation aids

VOR radial/distance  VOR name  Freq  Var
RNDr097/6.8RANDOLPH VORTAC112.3005E
SATr111/18.2SAN ANTONIO VORTAC116.8008E
SSFr037/(20.6)STINSON VOR108.4009E

Airport Services

Fuel available: 100
Airframe service: NONE
Powerplant service: NONE

Runway Information

Runway 17/35

Dimensions: 3000 x 200 ft. / 914 x 61 m
Surface: turf
RUNWAY 17  RUNWAY 35
Traffic pattern: leftright
Runway end identifier lights: nono
Obstructions: trees, 800 ft. from runway, 14:1 slope to cleartrees, 800 ft. from runway, 14:1 slope to clear

Airport Ownership and Management from official FAA records

Ownership: Privately-owned
Owner: ZUEHL APT FLYING COMM OWNRS ASSN
P.O. BOX 430
MARION, TX 78124
Phone 210-279-9528
Manager: ZUEHL ARPT FLYING COMM OWNRS ASSN
P.O. BOX 430
MARION, TX 78124
Phone 210-279-9528
BILL SMITH 12223 BROWNSTONE LIVE OAK, TX 78233 210-279-9528 WILNLIL@EARTHLINK.NET

Airport Operational Statistics

Aircraft based on the field: 105
Single engine airplanes: 100
Helicopters: 1
Ultralights: 4
    
Aircraft operations: avg 86/week
89% local general aviation
11% transient general aviation

Additional Remarks

ACFT WINGSPAN LTD TO 60 FT.
ARPT LCTD IN CLOSE PROXIMITY TO RANDOLPH AFB.
FOR CD CTC SAN ANTONIO APCH AT 210-805-5516.
OWNER DESIRES CHARTING.

Instrument Procedures

There are no published instrument procedures at 1TE4.

Some nearby airports with instrument procedures:

KRND - Randolph Air Force Base (7 nm W)
KBAZ - New Braunfels Regional Airport (14 nm NE)
KSAT - San Antonio International Airport (16 nm W)
KSSF - Stinson Municipal Airport (19 nm SW)
KSKF - Kelly Field Airport (23 nm W)
 
Loc | Ops | Rwys | IFR | FBO | Links
Com | Nav | Svcs | Stats | Notes
Area around 1TE4 (Zuehl Airport)
 
Road maps at: MapQuest Bing Google
 
Aerial photo
WARNING: Photo may not be current or correct
Aerial photo of 1TE4 (Zuehl Airport)
Photo by “Krusty”
Photo taken 22-Jan-2011
looking north.

Do you have a better or more recent aerial photo of Zuehl Airport that you would like to share? If so, please send us your photo.

 
Sectional chart

 
Airport distance calculator
Flying to Zuehl Airport? Find the distance to fly.

From to 1TE4

Sunrise and sunset
Times for 17-Jan-2021
 Local
(UTC-6)
 Zulu
(UTC)
Morning civil twilight07:0313:03
Sunrise07:2913:29
Sunset17:5723:57
Evening civil twilight18:2200:22

Current date and time
Zulu (UTC)  17-Jan-2021 10:34:35
Local (UTC-6)  17-Jan-2021 04:34:35
 
METAR
KRND 
6nm W 
170956Z AUTO 00000KT 10SM BKN150 07/M01 A3009 RMK AO2 SLP189 T00661011 $
KSEQ 
14nm E 
170958Z AUTO 26005KT 3/4SM R13/1600FT HZ FEW100 OVC130 07/M02 A3015 RMK AO2 SLP211 T00711016
KBAZ 
14nm NE 
170951Z AUTO 27006KT 10SM BKN017 07/M02 A3009 RMK AO2 SLP187 T00721022
KSAT 
16nm W 
170951Z 29005KT 10SM OVC150 07/M03 A3011 RMK AO2 SLP185 T00671028
KSSF 
19nm SW 
170953Z AUTO 00000KT 10SM CLR 07/00 A3010 RMK AO2 SLP192 T00720000
TAF
KSAT 
16nm W 
170520Z 1706/1812 33003KT P6SM BKN100 FM171600 25005KT P6SM SKC
KSSF 
19nm SW 
170520Z 1706/1806 VRB03KT P6SM BKN100 FM171600 26005KT P6SM SKC
NOTAMs
Click for the latest NOTAMs
NOTAMs are issued by the DoD/FAA and will open in a separate window not controlled by AirNav.

 

 
 

Would you like to see your business listed on this page?

 If your business provides an interesting product or service to pilots, flight crews, aircraft, or users of the Zuehl Airport, you should consider listing it here.  To start the listing process, click on the button below
 
Add a business
 

Other Pages about Zuehl Airport

www.zuehlfield.com
 
Update a link
 
Copyright © AirNav, LLC. All rights reserved. Privacy Policy  Contact